| time (UTC) | temp C | wind direction | speed KPH | gust KPH | rain 1hr cm | rain 24hr cm | rain mn cm | humidity % | barometer mb |
| 20260505140200 | 14 | 339 | 1.6 | 3.2 | 0.00 | 0.00 | 0.00 | 75 | 1016.5 |
| 20260505130124 | 10 | 226 | 0.0 | 1.6 | 0.00 | 0.00 | 0.00 | 84 | 1016.5 |
| 20260505124613 | 9 | 312 | 0.0 | 0.0 | 0.00 | 0.00 | 0.00 | 88 | 1016.5 |
| 20260505124110 | 9 | 314 | 1.6 | 1.6 | 0.00 | 0.00 | 0.00 | 90 | 1016.8 |
| 20260505123606 | 8 | 333 | 0.0 | 0.0 | 0.00 | 0.00 | 0.00 | 91 | 1016.5 |
| 20260505123102 | 8 | 300 | 0.0 | 0.0 | 0.00 | 0.00 | 0.00 | 92 | 1016.5 |
| 20260505122559 | 8 | 308 | 0.0 | 0.0 | 0.00 | 0.00 | 0.00 | 92 | 1016.6 |
| 20260505122056 | 8 | 305 | 0.0 | 0.0 | 0.00 | 0.00 | 0.00 | 93 | 1016.6 |
| 20260505121547 | 7 | 286 | 0.0 | 0.0 | 0.00 | 0.00 | 0.00 | 93 | 1016.8 |
| 20260505121044 | 7 | 160 | 0.0 | 0.0 | 0.00 | 0.00 | 0.00 | 95 | 1016.6 |
| 20260505120540 | 7 | 158 | 0.0 | 0.0 | 0.00 | 0.00 | 0.00 | 96 | 1016.4 |
| 20260505120036 | 7 | 158 | 0.0 | 0.0 | 0.00 | 0.00 | 0.00 | 98 | 1016.3 |
| 20260505115531 | 7 | 159 | 0.0 | 0.0 | 0.00 | 0.00 | 0.00 | 99 | 1016.5 |
| 20260505115029 | 6 | 279 | 0.0 | 0.0 | 0.00 | 0.00 | 0.00 | 99 | 1016.3 |
| 20260505114525 | 6 | 190 | 0.0 | 0.0 | 0.00 | 0.00 | 0.00 | 99 | 1016.3 |
| 20260505114021 | 6 | 189 | 0.0 | 0.0 | 0.00 | 0.00 | 0.00 | 99 | 1016.2 |
| 20260505113518 | 6 | 188 | 0.0 | 0.0 | 0.00 | 0.00 | 0.00 | 99 | 1015.9 |
| 20260505113014 | 5 | 186 | 0.0 | 0.0 | 0.00 | 0.00 | 0.00 | 99 | 1015.9 |
| 20260505112510 | 6 | 176 | 0.0 | 0.0 | 0.00 | 0.00 | 0.00 | 99 | 1015.8 |
| 20260505112009 | 6 | 151 | 0.0 | 1.6 | 0.00 | 0.00 | 0.00 | 99 | 1015.8 |
| 20260505111502 | 6 | 156 | 0.0 | 1.6 | 0.00 | 0.00 | 0.00 | 99 | 1015.7 |
| 20260505110959 | 5 | 152 | 0.0 | 0.0 | 0.00 | 0.00 | 0.00 | 99 | 1015.7 |
| 20260505110455 | 5 | 152 | 0.0 | 0.0 | 0.00 | 0.00 | 0.00 | 99 | 1015.9 |
| 20260505101926 | 5 | 183 | 0.0 | 0.0 | 0.00 | 0.00 | 0.00 | 99 | 1015.7 |
| 20260505101421 | 6 | 183 | 0.0 | 0.0 | 0.00 | 0.00 | 0.00 | 99 | 1015.6 |
| 20260505100917 | 6 | 164 | 1.6 | 3.2 | 0.00 | 0.00 | 0.00 | 99 | 1015.9 |
| 20260505100414 | 6 | 164 | 1.6 | 3.2 | 0.00 | 0.00 | 0.00 | 99 | 1015.6 |
| 20260505095910 | 6 | 163 | 0.0 | 0.0 | 0.00 | 0.00 | 0.00 | 99 | 1015.6 |
| 20260505095407 | 6 | 157 | 0.0 | 0.0 | 0.00 | 0.00 | 0.00 | 98 | 1015.7 |
| 20260505094903 | 6 | 184 | 0.0 | 0.0 | 0.00 | 0.00 | 0.00 | 97 | 1015.9 |
| 20260505094400 | 6 | 152 | 0.0 | 1.6 | 0.00 | 0.00 | 0.00 | 97 | 1015.7 |
| 20260505093855 | 6 | 162 | 0.0 | 0.0 | 0.00 | 0.00 | 0.00 | 97 | 1015.7 |
| 20260505093353 | 6 | 140 | 0.0 | 0.0 | 0.00 | 0.00 | 0.00 | 98 | 1015.8 |
| 20260505092850 | 6 | 142 | 1.6 | 1.6 | 0.00 | 0.00 | 0.00 | 97 | 1015.8 |
| 20260505092348 | 7 | 135 | 1.6 | 1.6 | 0.00 | 0.00 | 0.00 | 95 | 1015.8 |
| 20260505091845 | 7 | 150 | 1.6 | 1.6 | 0.00 | 0.00 | 0.00 | 94 | 1015.5 |
| 20260505091343 | 7 | 154 | 1.6 | 1.6 | 0.00 | 0.00 | 0.00 | 95 | 1015.7 |
| 20260505090841 | 7 | 164 | 1.6 | 1.6 | 0.00 | 0.00 | 0.00 | 97 | 1015.8 |
| 20260505090339 | 7 | 152 | 0.0 | 0.0 | 0.00 | 0.00 | 0.00 | 96 | 1015.9 |
| 20260505085836 | 7 | 151 | 0.0 | 1.6 | 0.00 | 0.00 | 0.00 | 95 | 1015.7 |
| 20260505085334 | 7 | 165 | 1.6 | 1.6 | 0.00 | 0.00 | 0.00 | 94 | 1015.8 |
| 20260505084831 | 8 | 152 | 1.6 | 3.2 | 0.00 | 0.00 | 0.00 | 92 | 1015.7 |
| 20260505084330 | 8 | 148 | 1.6 | 1.6 | 0.00 | 0.00 | 0.00 | 91 | 1015.6 |
| 20260505083826 | 8 | 143 | 3.2 | 3.2 | 0.00 | 0.00 | 0.00 | 90 | 1015.7 |
| 20260505083324 | 8 | 156 | 1.6 | 1.6 | 0.00 | 0.00 | 0.00 | 91 | 1015.8 |
| 20260505082820 | 8 | 156 | 1.6 | 1.6 | 0.00 | 0.00 | 0.00 | 90 | 1015.8 |
| 20260505082317 | 8 | 157 | 1.6 | 1.6 | 0.00 | 0.00 | 0.00 | 90 | 1015.7 |
| 20260505081814 | 8 | 156 | 0.0 | 0.0 | 0.00 | 0.00 | 0.00 | 89 | 1015.7 |
| 20260505081310 | 8 | 156 | 1.6 | 1.6 | 0.00 | 0.00 | 0.00 | 90 | 1015.6 |
| 20260505080807 | 8 | 189 | 1.6 | 1.6 | 0.00 | 0.00 | 0.00 | 91 | 1015.5 |
| 20260505080303 | 8 | 176 | 0.0 | 0.0 | 0.00 | 0.00 | 0.00 | 92 | 1015.6 |
| 20260505075758 | 8 | 172 | 0.0 | 0.0 | 0.00 | 0.00 | 0.00 | 91 | 1015.5 |
| 20260505075255 | 9 | 159 | 1.6 | 1.6 | 0.00 | 0.00 | 0.00 | 87 | 1015.5 |
| 20260505074753 | 9 | 170 | 1.6 | 1.6 | 0.00 | 0.00 | 0.00 | 86 | 1015.4 |
| 20260505074250 | 10 | 150 | 3.2 | 3.2 | 0.00 | 0.00 | 0.00 | 83 | 1015.4 |
| 20260505073747 | 9 | 163 | 3.2 | 3.2 | 0.00 | 0.00 | 0.00 | 86 | 1015.4 |
| 20260505073245 | 9 | 170 | 3.2 | 3.2 | 0.00 | 0.00 | 0.00 | 85 | 1015.5 |
| 20260505072742 | 10 | 162 | 3.2 | 3.2 | 0.00 | 0.00 | 0.00 | 85 | 1015.6 |
| 20260505072238 | 10 | 150 | 3.2 | 3.2 | 0.00 | 0.00 | 0.00 | 82 | 1015.5 |
| 20260505071733 | 10 | 155 | 4.8 | 4.8 | 0.00 | 0.00 | 0.00 | 81 | 1015.4 |
| 20260505071231 | 9 | 154 | 3.2 | 3.2 | 0.00 | 0.00 | 0.00 | 87 | 1015.6 |
| 20260505070728 | 10 | 232 | 3.2 | 3.2 | 0.00 | 0.00 | 0.00 | 83 | 1015.5 |
| 20260505070224 | 10 | 170 | 4.8 | 4.8 | 0.00 | 0.00 | 0.00 | 84 | 1015.5 |
| 20260505065720 | 10 | 88 | 1.6 | 1.6 | 0.00 | 0.00 | 0.00 | 85 | 1015.2 |
| 20260505065217 | 10 | 146 | 6.4 | 8.0 | 0.00 | 0.00 | 0.00 | 84 | 1015.4 |
| 20260505064714 | 10 | 184 | 3.2 | 4.8 | 0.00 | 0.00 | 0.00 | 85 | 1015.4 |
| 20260505064212 | 10 | 174 | 3.2 | 4.8 | 0.00 | 0.00 | 0.00 | 84 | 1015.6 |
| 20260505063709 | 10 | 179 | 3.2 | 4.8 | 0.00 | 0.00 | 0.00 | 85 | 1015.4 |
| 20260505063205 | 10 | 149 | 3.2 | 3.2 | 0.00 | 0.00 | 0.00 | 84 | 1015.5 |
| 20260505062701 | 10 | 146 | 1.6 | 3.2 | 0.00 | 0.00 | 0.00 | 85 | 1015.5 |
| 20260505062200 | 10 | 152 | 3.2 | 4.8 | 0.00 | 0.00 | 0.00 | 83 | 1015.5 |
| 20260505061656 | 10 | 164 | 1.6 | 1.6 | 0.00 | 0.00 | 0.00 | 84 | 1015.6 |
| 20260505061154 | 10 | 168 | 3.2 | 3.2 | 0.00 | 0.00 | 0.00 | 83 | 1015.8 |
| 20260505060651 | 10 | 158 | 1.6 | 3.2 | 0.00 | 0.00 | 0.00 | 82 | 1015.6 |
| 20260505060148 | 10 | 152 | 3.2 | 3.2 | 0.00 | 0.00 | 0.00 | 80 | 1015.7 |
| 20260505055643 | 11 | 133 | 4.8 | 4.8 | 0.00 | 0.00 | 0.00 | 80 | 1015.5 |
| 20260505055140 | 11 | 160 | 1.6 | 3.2 | 0.00 | 0.00 | 0.00 | 80 | 1015.8 |
| 20260505054638 | 11 | 159 | 4.8 | 4.8 | 0.00 | 0.00 | 0.00 | 78 | 1015.5 |
| 20260505054136 | 11 | 149 | 3.2 | 3.2 | 0.00 | 0.00 | 0.00 | 78 | 1015.9 |
| 20260505053633 | 11 | 141 | 4.8 | 4.8 | 0.00 | 0.00 | 0.00 | 80 | 1015.8 |
| 20260505053129 | 11 | 141 | 3.2 | 3.2 | 0.00 | 0.00 | 0.00 | 77 | 1015.7 |
| 20260505052626 | 11 | 139 | 0.0 | 0.0 | 0.00 | 0.00 | 0.00 | 77 | 1015.7 |
| 20260505052124 | 11 | 163 | 3.2 | 3.2 | 0.00 | 0.00 | 0.00 | 78 | 1015.6 |
| 20260505051621 | 11 | 144 | 3.2 | 3.2 | 0.00 | 0.00 | 0.00 | 76 | 1015.3 |
| 20260505051119 | 11 | 166 | 3.2 | 3.2 | 0.00 | 0.00 | 0.00 | 77 | 1015.6 |
| 20260505050616 | 11 | 152 | 3.2 | 3.2 | 0.00 | 0.00 | 0.00 | 78 | 1015.7 |
| 20260505050114 | 11 | 156 | 4.8 | 4.8 | 0.00 | 0.00 | 0.00 | 78 | 1015.8 |
| 20260505041544 | 15 | 176 | 1.6 | 3.2 | 0.00 | 0.00 | 0.00 | 62 | 1015.6 |
| 20260505041041 | 15 | 175 | 3.2 | 3.2 | 0.00 | 0.00 | 0.00 | 61 | 1015.5 |
| 20260505040538 | 15 | 177 | 3.2 | 3.2 | 0.00 | 0.00 | 0.00 | 64 | 1015.8 |
| 20260505040036 | 15 | 149 | 0.0 | 0.0 | 0.00 | 0.00 | 0.00 | 59 | 1015.7 |
| 20260505035531 | 15 | 166 | 1.6 | 1.6 | 0.00 | 0.00 | 0.00 | 60 | 1015.6 |
| 20260505035028 | 15 | 168 | 1.6 | 1.6 | 0.00 | 0.00 | 0.00 | 58 | 1015.7 |
| 20260505034525 | 16 | 159 | 3.2 | 3.2 | 0.00 | 0.00 | 0.00 | 63 | 1015.7 |
| 20260505034022 | 16 | 195 | 4.8 | 4.8 | 0.00 | 0.00 | 0.00 | 60 | 1015.8 |
| 20260505033519 | 16 | 195 | 3.2 | 3.2 | 0.00 | 0.00 | 0.00 | 57 | 1015.9 |
| 20260505033017 | 16 | 177 | 3.2 | 3.2 | 0.00 | 0.00 | 0.00 | 59 | 1016.2 |
| 20260505032514 | 17 | 254 | 1.6 | 1.6 | 0.00 | 0.00 | 0.00 | 54 | 1016.0 |
| 20260505032010 | 16 | 197 | 4.8 | 4.8 | 0.00 | 0.00 | 0.00 | 59 | 1016.3 |
| 20260505031508 | 16 | 221 | 3.2 | 3.2 | 0.00 | 0.00 | 0.00 | 55 | 1016.4 |
| 20260505031004 | 16 | 163 | 1.6 | 3.2 | 0.00 | 0.00 | 0.00 | 57 | 1016.2 |
| 20260505030501 | 16 | 170 | 3.2 | 3.2 | 0.00 | 0.00 | 0.00 | 62 | 1015.9 |
| 20260505025955 | 16 | 158 | 3.2 | 3.2 | 0.00 | 0.00 | 0.00 | 58 | 1016.0 |
| 20260505025453 | 16 | 173 | 0.0 | 0.0 | 0.00 | 0.00 | 0.00 | 57 | 1016.0 |
| 20260505024952 | 16 | 174 | 1.6 | 1.6 | 0.00 | 0.00 | 0.00 | 58 | 1016.2 |
| 20260505024449 | 16 | 178 | 1.6 | 1.6 | 0.00 | 0.00 | 0.00 | 55 | 1015.9 |
| 20260505023946 | 16 | 175 | 1.6 | 1.6 | 0.00 | 0.00 | 0.00 | 56 | 1016.0 |
| 20260505023443 | 16 | 160 | 3.2 | 3.2 | 0.00 | 0.00 | 0.00 | 55 | 1016.2 |
| 20260505022940 | 16 | 238 | 0.0 | 1.6 | 0.00 | 0.00 | 0.00 | 56 | 1016.0 |
| 20260505022438 | 16 | 263 | 1.6 | 1.6 | 0.00 | 0.00 | 0.00 | 56 | 1016.0 |
| 20260505021935 | 16 | 196 | 0.0 | 1.6 | 0.00 | 0.00 | 0.00 | 55 | 1015.9 |
| 20260505021431 | 16 | 235 | 3.2 | 3.2 | 0.00 | 0.00 | 0.00 | 55 | 1015.6 |
| 20260505020927 | 16 | 168 | 0.0 | 0.0 | 0.00 | 0.00 | 0.00 | 55 | 1016.0 |
| 20260505020422 | 16 | 156 | 1.6 | 3.2 | 0.00 | 0.00 | 0.00 | 55 | 1015.8 |
| 20260505015919 | 17 | 149 | 0.0 | 0.0 | 0.00 | 0.00 | 0.00 | 55 | 1015.7 |
| 20260505015417 | 16 | 104 | 0.0 | 0.0 | 0.00 | 0.00 | 0.00 | 54 | 1015.9 |
| 20260505014914 | 17 | 89 | 0.0 | 0.0 | 0.00 | 0.00 | 0.00 | 54 | 1015.4 |
| 20260505014411 | 17 | 123 | 0.0 | 0.0 | 0.00 | 0.00 | 0.00 | 53 | 1015.3 |
| 20260505013908 | 17 | 119 | 0.0 | 0.0 | 0.00 | 0.00 | 0.00 | 52 | 1015.5 |
| 20260505013404 | 17 | 99 | 0.0 | 1.6 | 0.00 | 0.00 | 0.00 | 52 | 1015.4 |
| 20260505012903 | 17 | 107 | 0.0 | 0.0 | 0.00 | 0.00 | 0.00 | 53 | 1015.4 |
| 20260505012400 | 17 | 135 | 1.6 | 1.6 | 0.00 | 0.00 | 0.00 | 54 | 1015.5 |
| 20260505011856 | 17 | 110 | 0.0 | 0.0 | 0.00 | 0.00 | 0.00 | 54 | 1015.4 |
| 20260505011353 | 17 | 164 | 1.6 | 3.2 | 0.00 | 0.00 | 0.00 | 54 | 1015.2 |
| 20260505010849 | 17 | 176 | 3.2 | 3.2 | 0.00 | 0.00 | 0.00 | 55 | 1015.5 |
| 20260505010345 | 18 | 122 | 1.6 | 1.6 | 0.00 | 0.00 | 0.00 | 54 | 1015.4 |
| 20260505005842 | 18 | 64 | 1.6 | 1.6 | 0.00 | 0.00 | 0.00 | 54 | 1015.3 |
| 20260505005338 | 18 | 95 | 1.6 | 1.6 | 0.00 | 0.00 | 0.00 | 53 | 1015.1 |
| 20260505004836 | 18 | 261 | 1.6 | 1.6 | 0.00 | 0.00 | 0.00 | 56 | 1015.1 |
| 20260505004332 | 18 | 200 | 3.2 | 3.2 | 0.00 | 0.00 | 0.00 | 54 | 1015.3 |
| 20260505003830 | 18 | 282 | 1.6 | 3.2 | 0.00 | 0.00 | 0.00 | 55 | 1015.0 |
| 20260505003327 | 18 | 103 | 0.0 | 0.0 | 0.00 | 0.00 | 0.00 | 57 | 1015.1 |
| 20260505002822 | 18 | 52 | 1.6 | 3.2 | 0.00 | 0.00 | 0.00 | 57 | 1015.0 |
| 20260505002320 | 18 | 59 | 0.0 | 0.0 | 0.00 | 0.00 | 0.00 | 56 | 1015.0 |
| 20260505001818 | 18 | 71 | 1.6 | 1.6 | 0.00 | 0.00 | 0.00 | 56 | 1015.0 |
| 20260505001315 | 18 | 98 | 0.0 | 0.0 | 0.00 | 0.00 | 0.00 | 55 | 1014.8 |
| 20260505000812 | 19 | 289 | 1.6 | 3.2 | 0.00 | 0.00 | 0.00 | 54 | 1014.9 |
| 20260505000310 | 19 | 346 | 4.8 | 4.8 | 0.00 | 0.00 | 0.00 | 53 | 1015.0 |
| 20260504235806 | 20 | 170 | 0.0 | 0.0 | 0.00 | 0.00 | 0.00 | 53 | 1014.8 |
| 20260504235304 | 20 | 99 | 1.6 | 1.6 | 0.00 | 0.00 | 0.00 | 54 | 1014.7 |
| 20260504234800 | 20 | 322 | 1.6 | 3.2 | 0.00 | 0.00 | 0.00 | 51 | 1014.5 |
| 20260504234258 | 20 | 49 | 0.0 | 0.0 | 0.00 | 0.00 | 0.00 | 51 | 1014.7 |
| 20260504233753 | 20 | 312 | 1.6 | 3.2 | 0.00 | 0.00 | 0.00 | 51 | 1014.7 |
| 20260504233249 | 20 | 195 | 1.6 | 1.6 | 0.00 | 0.00 | 0.00 | 51 | 1014.5 |
| 20260504232746 | 20 | 230 | 4.8 | 4.8 | 0.00 | 0.00 | 0.00 | 50 | 1014.5 |
| 20260504232243 | 20 | 190 | 3.2 | 3.2 | 0.00 | 0.00 | 0.00 | 50 | 1014.4 |
| 20260504231740 | 20 | 215 | 3.2 | 4.8 | 0.00 | 0.00 | 0.00 | 50 | 1014.2 |
| 20260504231237 | 20 | 232 | 1.6 | 1.6 | 0.00 | 0.00 | 0.00 | 50 | 1014.2 |
| 20260504230732 | 20 | 282 | 4.8 | 4.8 | 0.00 | 0.00 | 0.00 | 48 | 1014.2 |
| 20260504230231 | 21 | 268 | 3.2 | 3.2 | 0.00 | 0.00 | 0.00 | 47 | 1014.2 |
| 20260504225730 | 21 | 205 | 3.2 | 4.8 | 0.00 | 0.00 | 0.00 | 47 | 1014.1 |
| 20260504225226 | 21 | 245 | 6.4 | 8.0 | 0.00 | 0.00 | 0.00 | 46 | 1014.1 |
| 20260504224723 | 21 | 240 | 3.2 | 4.8 | 0.00 | 0.00 | 0.00 | 47 | 1014.3 |
| 20260504224220 | 21 | 177 | 6.4 | 8.0 | 0.00 | 0.00 | 0.00 | 47 | 1014.3 |
| 20260504223716 | 22 | 193 | 4.8 | 4.8 | 0.00 | 0.00 | 0.00 | 46 | 1014.4 |
| 20260504223212 | 22 | 240 | 3.2 | 3.2 | 0.00 | 0.00 | 0.00 | 45 | 1014.1 |
| 20260504222709 | 22 | 299 | 1.6 | 1.6 | 0.00 | 0.00 | 0.00 | 46 | 1014.4 |
| 20260504222206 | 22 | 254 | 8.0 | 9.7 | 0.00 | 0.00 | 0.00 | 44 | 1014.2 |
| 20260504221703 | 22 | 269 | 4.8 | 9.7 | 0.00 | 0.00 | 0.00 | 44 | 1014.5 |
| 20260504221200 | 22 | 243 | 8.0 | 11.3 | 0.00 | 0.00 | 0.00 | 43 | 1014.1 |
| 20260504220656 | 22 | 267 | 4.8 | 9.7 | 0.00 | 0.00 | 0.00 | 43 | 1014.0 |
| 20260504220154 | 22 | 168 | 3.2 | 4.8 | 0.00 | 0.00 | 0.00 | 42 | 1014.0 |
| 20260504215651 | 23 | 265 | 9.7 | 14.5 | 0.00 | 0.00 | 0.00 | 42 | 1014.1 |
| 20260504215148 | 23 | 296 | 4.8 | 8.0 | 0.00 | 0.00 | 0.00 | 42 | 1014.1 |
| 20260504214643 | 23 | 208 | 3.2 | 3.2 | 0.00 | 0.00 | 0.00 | 42 | 1013.8 |
| 20260504214140 | 23 | 218 | 4.8 | 4.8 | 0.00 | 0.00 | 0.00 | 43 | 1014.0 |
| 20260504213637 | 23 | 43 | 1.6 | 1.6 | 0.00 | 0.00 | 0.00 | 40 | 1014.0 |
| 20260504213134 | 24 | 152 | 3.2 | 4.8 | 0.00 | 0.00 | 0.00 | 40 | 1014.0 |
| 20260504212630 | 24 | 50 | 0.0 | 1.6 | 0.00 | 0.00 | 0.00 | 43 | 1013.8 |
| 20260504212127 | 24 | 238 | 4.8 | 4.8 | 0.00 | 0.00 | 0.00 | 38 | 1014.0 |
| 20260504211625 | 24 | 184 | 6.4 | 9.7 | 0.00 | 0.00 | 0.00 | 37 | 1013.6 |
| 20260504211121 | 24 | 275 | 6.4 | 8.0 | 0.00 | 0.00 | 0.00 | 38 | 1014.0 |
| 20260504210619 | 25 | 275 | 4.8 | 4.8 | 0.00 | 0.00 | 0.00 | 35 | 1013.7 |
| 20260504210115 | 25 | 148 | 3.2 | 4.8 | 0.00 | 0.00 | 0.00 | 35 | 1013.5 |
| 20260504205613 | 24 | 205 | 3.2 | 3.2 | 0.00 | 0.00 | 0.00 | 32 | 1013.8 |
| 20260504205110 | 25 | 319 | 1.6 | 1.6 | 0.00 | 0.00 | 0.00 | 30 | 1013.7 |
| 20260504204608 | 25 | 31 | 1.6 | 3.2 | 0.00 | 0.00 | 0.00 | 32 | 1013.9 |
| 20260504204107 | 25 | 281 | 1.6 | 4.8 | 0.00 | 0.00 | 0.00 | 34 | 1013.6 |
| 20260504203605 | 25 | 296 | 0.0 | 1.6 | 0.00 | 0.00 | 0.00 | 33 | 1013.8 |
| 20260504203102 | 25 | 291 | 1.6 | 1.6 | 0.00 | 0.00 | 0.00 | 33 | 1013.8 |
| 20260504202557 | 26 | 257 | 4.8 | 4.8 | 0.00 | 0.00 | 0.00 | 35 | 1013.8 |
| 20260504202054 | 25 | 213 | 1.6 | 1.6 | 0.00 | 0.00 | 0.00 | 36 | 1013.7 |
| 20260504201551 | 25 | 242 | 4.8 | 8.0 | 0.00 | 0.00 | 0.00 | 29 | 1013.8 |
| 20260504201049 | 26 | 282 | 8.0 | 9.7 | 0.00 | 0.00 | 0.00 | 31 | 1013.9 |
| 20260504200545 | 26 | 152 | 1.6 | 3.2 | 0.00 | 0.00 | 0.00 | 33 | 1014.0 |
| 20260504200042 | 26 | 44 | 1.6 | 1.6 | 0.00 | 0.00 | 0.00 | 32 | 1013.9 |
| 20260504195538 | 25 | 99 | 1.6 | 3.2 | 0.00 | 0.00 | 0.00 | 41 | 1013.9 |
| 20260504195035 | 25 | 24 | 1.6 | 3.2 | 0.00 | 0.00 | 0.00 | 37 | 1014.3 |
| 20260504194531 | 23 | 172 | 1.6 | 1.6 | 0.00 | 0.00 | 0.00 | 36 | 1014.2 |
| 20260504194027 | 24 | 131 | 3.2 | 4.8 | 0.00 | 0.00 | 0.00 | 38 | 1014.2 |
| 20260504193524 | 24 | 154 | 1.6 | 1.6 | 0.00 | 0.00 | 0.00 | 35 | 1014.4 |
| 20260504193023 | 25 | 314 | 1.6 | 1.6 | 0.00 | 0.00 | 0.00 | 35 | 1014.2 |
| 20260504192520 | 25 | 33 | 1.6 | 3.2 | 0.00 | 0.00 | 0.00 | 35 | 1014.3 |
| 20260504192018 | 25 | 241 | 3.2 | 3.2 | 0.00 | 0.00 | 0.00 | 38 | 1014.4 |
| 20260504191516 | 26 | 343 | 3.2 | 3.2 | 0.00 | 0.00 | 0.00 | 43 | 1014.5 |
| 20260504191012 | 25 | 279 | 1.6 | 1.6 | 0.00 | 0.00 | 0.00 | 37 | 1014.8 |
| 20260504190508 | 25 | 158 | 3.2 | 3.2 | 0.00 | 0.00 | 0.00 | 38 | 1014.4 |
| 20260504190004 | 25 | 88 | 0.0 | 0.0 | 0.00 | 0.00 | 0.00 | 38 | 1014.5 |
| 20260504185501 | 25 | 41 | 1.6 | 4.8 | 0.00 | 0.00 | 0.00 | 42 | 1015.0 |
| 20260504184957 | 25 | 318 | 0.0 | 1.6 | 0.00 | 0.00 | 0.00 | 39 | 1015.0 |
| 20260504184453 | 23 | 10 | 1.6 | 1.6 | 0.00 | 0.00 | 0.00 | 43 | 1015.2 |
| 20260504183949 | 24 | 92 | 3.2 | 3.2 | 0.00 | 0.00 | 0.00 | 44 | 1015.5 |
| 20260504183446 | 24 | 118 | 1.6 | 3.2 | 0.00 | 0.00 | 0.00 | 45 | 1015.4 |
| 20260504182944 | 24 | 165 | 1.6 | 1.6 | 0.00 | 0.00 | 0.00 | 41 | 1015.6 |
| 20260504182441 | 23 | 84 | 0.0 | 0.0 | 0.00 | 0.00 | 0.00 | 48 | 1015.4 |
| 20260504181938 | 23 | 19 | 3.2 | 4.8 | 0.00 | 0.00 | 0.00 | 51 | 1015.6 |
| 20260504181435 | 22 | 132 | 1.6 | 1.6 | 0.00 | 0.00 | 0.00 | 47 | 1015.6 |
| 20260504180934 | 22 | 301 | 1.6 | 1.6 | 0.00 | 0.00 | 0.00 | 42 | 1015.7 |
| 20260504180432 | 22 | 201 | 3.2 | 3.2 | 0.00 | 0.00 | 0.00 | 43 | 1015.8 |
| 20260504175930 | 23 | 191 | 3.2 | 3.2 | 0.00 | 0.00 | 0.00 | 39 | 1015.9 |
| 20260504175427 | 23 | 11 | 3.2 | 3.2 | 0.00 | 0.00 | 0.00 | 40 | 1015.7 |
| 20260504174925 | 21 | 56 | 0.0 | 1.6 | 0.00 | 0.00 | 0.00 | 42 | 1016.3 |
| 20260504174422 | 23 | 60 | 4.8 | 4.8 | 0.00 | 0.00 | 0.00 | 43 | 1016.0 |
| 20260504173919 | 22 | 271 | 3.2 | 3.2 | 0.00 | 0.00 | 0.00 | 45 | 1016.3 |
| 20260504173415 | 22 | 169 | 1.6 | 1.6 | 0.00 | 0.00 | 0.00 | 49 | 1016.2 |
| 20260504172913 | 21 | 19 | 6.4 | 9.7 | 0.00 | 0.00 | 0.00 | 45 | 1016.3 |
| 20260504172409 | 21 | 76 | 0.0 | 1.6 | 0.00 | 0.00 | 0.00 | 48 | 1016.4 |
| 20260504171905 | 21 | 261 | 4.8 | 8.0 | 0.00 | 0.00 | 0.00 | 45 | 1016.5 |
| 20260504171403 | 22 | 307 | 4.8 | 4.8 | 0.00 | 0.00 | 0.00 | 48 | 1016.5 |
| 20260504170859 | 21 | 180 | 0.0 | 1.6 | 0.00 | 0.00 | 0.00 | 48 | 1016.6 |
| 20260504170356 | 21 | 292 | 8.0 | 9.7 | 0.00 | 0.00 | 0.00 | 44 | 1016.6 |
| 20260504160315 | 19 | 31 | 6.4 | 9.7 | 0.00 | 0.00 | 0.00 | 50 | 1017.8 |
| 20260504150739 | 15 | 81 | 0.0 | 0.0 | 0.00 | 0.00 | 0.00 | 55 | 1018.6 |
| 20260504150236 | 15 | 200 | 1.6 | 1.6 | 0.00 | 0.00 | 0.00 | 56 | 1018.7 |